[[{"header":{"parameterUnit":"m.s-1","parameterCategory":1,"la1":30.2991,"la2":30.254,"lo1":-89.0895,"lo2":-89.0444,"dy":0.0017,"dx":0.0017,"nx":28,"ny":28,"refTime":"2023-09-13T09:00:00:Z","depth":0,"parameterNumber":2,"parameterNumberName":"U-component_of_WINDS"},"data":[0,0,0,0,0,0,0,0,0,0,0,0,0,0,0,0,0,0,0,0,0,0,0,0,0,0,0,0,0,0,0,0,0,0,0,0,0,0,0,0,0,0,0,0,0,0,0,0,0,0,0,0,0,0,0,0,0,0,-3.6147,-3.6147,0,-3.6161,-3.6162,-3.6162,-3.6035,-3.6032,-3.6028,-3.6025,-3.604,-3.6043,-3.6047,0,0,0,0,0,0,0,0,0,0,0,0,0,-3.6009,-3.6012,-3.6147,-3.6147,-3.6147,-3.6161,-3.6162,-3.6162,-3.6036,-3.6032,-3.6028,-3.6024,-3.6039,-3.6043,-3.6047,0,0,0,0,0,0,0,0,0,0,0,0,0,-3.6051,-3.6013,-3.6147,-3.6086,-3.6081,-3.6161,-3.6162,-3.6162,-3.6037,-3.6032,-3.6026,-3.6022,-3.6037,-3.6042,-3.6048,-3.6187,0,0,-3.6065,-3.6067,0,0,0,0,0,0,0,0,-3.6049,-3.6056,-3.6095,-3.609,-3.6085,-3.6091,-3.6118,-3.617,-3.6038,-3.6054,-3.6025,-3.6019,-3.6061,-3.6064,-3.6079,-3.6188,-3.6188,-3.6065,-3.6068,-3.6071,-3.6072,0,0,0,0,0,0,0,-3.6046,-3.6055,-3.6152,-3.6095,-3.6089,-3.6058,-3.6058,-3.6127,-3.6087,-3.6052,-3.6043,-3.6046,-3.6057,-3.6074,-3.6078,-3.6188,-3.6065,-3.607,-3.6073,-3.6075,-3.641,-3.6416,0,0,0,0,0,0,-3.6051,-3.6053,-3.6152,-3.6153,-3.6053,-3.6065,-3.6065,-3.6094,-3.6086,-3.6079,-3.6051,-3.604,-3.6067,-3.6072,-3.6078,-3.6238,-3.6071,-3.6076,-3.6079,-3.6405,-3.6412,-3.6418,0,0,0,0,0,0,-3.6049,-3.6061,-3.6151,-3.6101,-3.611,-3.6073,-3.6107,-3.6097,-3.6113,-3.6085,-3.6077,-3.6075,-3.6063,-3.607,-3.616,-3.6237,-3.6078,-3.6083,-3.6398,-3.6407,-3.6415,-3.6561,0,0,0,0,0,0,-3.6045,-3.6061,-3.6114,-3.6103,-3.6113,-3.6234,-3.6112,-3.6102,-3.6123,-3.611,-3.6105,-3.6099,-3.6059,-3.6153,-3.6166,-3.6241,-3.6088,-3.6391,-3.6402,-3.6412,-3.6549,-3.6573,-3.6594,0,0,0,0,0,-3.6041,-3.6154,-3.6117,-3.613,-3.6178,-3.6239,-3.6244,-3.6196,-3.613,-3.6182,-3.6164,-3.6099,-3.6227,-3.6163,-3.6177,-3.6255,-3.6386,-3.6399,-3.6411,-3.6539,-3.6568,-3.6593,0,0,0,0,0,0,-3.6175,-3.6152,-3.611,-3.6223,-3.6234,-3.6217,-3.6281,-3.6229,-3.6258,-3.6245,-3.6183,-3.6184,-3.6283,-3.6279,-3.6208,-3.6389,-3.6295,-3.6311,-3.6387,-3.6415,-3.6437,-3.6435,-3.6092,0,0,0,0,0,-3.6218,-3.627,-3.6247,-3.6349,-3.6356,-3.6319,-3.6343,-3.6305,-3.6314,-3.6317,-3.6305,-3.6316,-3.6358,-3.6387,-3.6424,-3.6549,-3.6545,-3.661,-3.6632,-3.6651,-3.6664,-3.6728,-3.6755,-3.6459,-3.6459,-3.6459,0,0,-3.6307,-3.6301,-3.6337,-3.6376,-3.6379,-3.6433,-3.6323,-3.6385,-3.6424,-3.6327,-3.641,-3.6403,-3.641,-3.6518,-3.6564,-3.6516,-3.6746,-3.6667,-3.6682,-3.6685,-3.6743,-3.6772,-3.6796,-3.6468,-3.6466,-3.6465,0,0,-3.6495,-3.6497,-3.6581,-3.6587,-3.6594,-3.6569,-3.659,-3.6581,-3.6572,-3.6655,-3.6582,-3.6629,-3.6703,-3.6711,-3.6724,-3.6918,-3.6859,-3.6932,-3.7048,-3.7111,-3.7134,-3.7154,-3.722,-3.7245,-3.6946,-3.6947,-3.6947,0,-3.6604,-3.6683,-3.6631,-3.6698,-3.6716,-3.6632,-3.6716,-3.6725,-3.6744,-3.6758,-3.6705,-3.6796,-3.6796,-3.6903,-3.695,-3.6965,-3.6985,-3.693,-3.7135,-3.7155,-3.7173,-3.7235,-3.726,-3.6955,-3.6954,-3.6953,-3.6952,0,-3.6815,-3.6871,-3.6938,-3.6959,-3.6985,-3.7061,-3.702,-3.7054,-3.7015,-3.6994,-3.708,-3.7077,-3.7111,-3.7134,-3.7097,-3.7236,-3.7206,-3.7146,-3.7049,-3.721,-3.7268,-3.7291,-3.6967,-3.6964,-3.6962,-3.696,0,0,-3.7085,-3.7077,-3.7102,-3.711,-3.7112,-3.7154,-3.7226,-3.726,-3.7289,-3.7306,-3.7363,-3.7429,-3.7372,-3.7388,-3.7351,-3.7407,-3.7557,-3.7339,-3.7338,-3.7376,-3.7707,-3.775,-3.7779,-3.752,-3.7524,-3.7527,-3.7706,0,-3.7266,-3.7387,-3.7343,-3.7467,-3.7517,-3.7438,-3.7501,-3.7509,-3.7493,-3.7533,-3.7515,-3.7561,-3.7485,-3.7493,-3.7546,-3.7528,-3.7622,-3.7515,-3.757,-3.7572,-3.7566,-3.7809,-3.7854,-3.8022,-3.7728,-3.7732,-3.7735,0,-3.7492,-3.7518,-3.7647,-3.764,-3.7659,-3.7716,-3.7743,-3.7783,-3.7791,-3.7775,-3.7794,-3.7745,-3.7814,-3.7722,-3.7815,-3.7743,-3.7764,-3.7759,-3.7764,-3.7764,-3.766,-3.7812,-3.8075,-3.8099,-3.777,-3.7767,-3.7765,0,-3.7671,-3.7739,-3.7824,-3.7834,-3.7829,-3.7871,-3.7871,-3.7873,-3.7896,-3.7921,-3.7935,-3.7968,-3.7984,-3.8011,-3.7971,-3.7908,-3.807,-3.7974,-3.8057,-3.8058,-3.809,-3.8088,-3.8357,-3.8111,-3.8111,-3.811,-3.811,0,-3.7875,-3.7957,-3.7905,-3.7957,-3.8045,-3.7995,-3.8084,-3.8075,-3.8079,-3.8127,-3.8063,-3.811,-3.8057,-3.8099,-3.8069,-3.8149,-3.8159,-3.8146,-3.8137,-3.815,-3.8151,-3.8159,-3.8145,-3.8117,-3.8116,-3.8114,-3.8113,0,-3.8089,-3.8058,-3.8145,-3.8134,-3.8133,-3.8199,-3.8189,-3.8236,-3.8217,-3.8279,-3.829,-3.8259,-3.8305,-3.827,-3.8316,-3.8295,-3.84,-3.8377,-3.8398,-3.8389,-3.8472,-3.8463,-3.8752,-3.8786,-3.8523,-3.8526,-3.8528,0,-3.8218,-3.8279,-3.8275,-3.8303,-3.8307,-3.8353,-3.8376,-3.8331,-3.8357,-3.8371,-3.8417,-3.8458,-3.8487,-3.8564,-3.8545,-3.8579,-3.8553,-3.8652,-3.8557,-3.8568,-3.855,-3.8545,-3.8549,-3.867,-3.8673,-3.8675,-3.8677,0,-3.8451,-3.8433,-3.8469,-3.8501,-3.853,-3.8553,-3.857,-3.8597,-3.855,-3.8584,-3.863,-3.8653,-3.87,-3.874,-3.8768,-3.8767,-3.8714,-3.8708,-3.8728,-3.874,-3.8748,-3.8741,-3.8445,-3.8701,-3.8698,-3.8697,-3.8695,-3.8694,-3.8623,-3.8673,-3.8677,-3.872,-3.8728,-3.8746,-3.879,-3.8776,-3.8814,-3.8848,-3.882,-3.8875,-3.8881,-3.8913,-3.8919,-3.8961,-3.8919,-3.895,-3.8956,-3.8963,-3.8973,-3.8746,-3.8966,-3.8966,-3.8965,-3.8964,-3.8964,0,-3.8849,-3.8849,-3.8889,-3.8915,-3.8948,-3.8898,-3.8915,-3.8945,-3.8995,-3.9006,-3.9037,-3.9089,-3.9129,-3.9114,-3.9148,-3.9185,-3.9161,-3.9195,-3.9189,-3.9189,-3.901,-3.8987,-3.9213,-3.9213,-3.9213,-3.9213,-3.9213,-3.9213,-3.897,-3.905,-3.9033,-3.9117,-3.9116,-3.9169,-3.9182,-3.9198,-3.9206,-3.9268,-3.9301,-3.9292,-3.9292,-3.9326,-3.936,-3.9354,-3.9368,-3.941,-3.9396,-3.9227,-3.9202,-3.9179,-3.9157,-3.9415,-3.9415,-3.9571,-3.9572,-3.9573]},{"header":{"parameterUnit":"m.s-1","parameterCategory":1,"la1":30.2991,"la2":30.254,"lo1":-89.0895,"lo2":-89.0444,"dy":0.0017,"dx":0.0017,"nx":28,"ny":28,"refTime":"2023-09-13T09:00:00:Z","depth":0,"parameterNumber":3,"parameterNumberName":"V-component_of_WINDS"},"data":[0,0,0,0,0,0,0,0,0,0,0,0,0,0,0,0,0,0,0,0,0,0,0,0,0,0,0,0,0,0,0,0,0,0,0,0,0,0,0,0,0,0,0,0,0,0,0,0,0,0,0,0,0,0,0,0,0,0,-2.4952,-2.4953,0,-2.4986,-2.4986,-2.4987,-2.4973,-2.4972,-2.4972,-2.4971,-2.5004,-2.5005,-2.5007,0,0,0,0,0,0,0,0,0,0,0,0,0,-2.4873,-2.4874,-2.4952,-2.4953,-2.4953,-2.4986,-2.4986,-2.4987,-2.4973,-2.4972,-2.4971,-2.497,-2.5003,-2.5005,-2.5007,0,0,0,0,0,0,0,0,0,0,0,0,0,-2.4907,-2.4875,-2.4952,-2.495,-2.495,-2.4986,-2.4987,-2.4987,-2.4973,-2.4972,-2.4971,-2.497,-2.5003,-2.5005,-2.5007,-2.5046,0,0,-2.5015,-2.5016,0,0,0,0,0,0,0,0,-2.4905,-2.491,-2.495,-2.495,-2.4951,-2.4974,-2.4971,-2.5007,-2.4974,-2.4965,-2.4971,-2.4969,-2.4995,-2.4998,-2.5007,-2.5048,-2.5049,-2.5015,-2.5017,-2.5018,-2.5018,0,0,0,0,0,0,0,-2.4903,-2.4908,-2.4966,-2.4951,-2.4951,-2.4947,-2.495,-2.4977,-2.4986,-2.4965,-2.4964,-2.4969,-2.4995,-2.5005,-2.5007,-2.505,-2.5015,-2.5017,-2.5019,-2.502,-2.5122,-2.5123,0,0,0,0,0,0,-2.4901,-2.4907,-2.4964,-2.4967,-2.4925,-2.4949,-2.4953,-2.4968,-2.4986,-2.4987,-2.497,-2.4968,-2.5001,-2.5005,-2.5009,-2.5054,-2.5018,-2.502,-2.5021,-2.5121,-2.5123,-2.5124,0,0,0,0,0,0,-2.4899,-2.4906,-2.4963,-2.4936,-2.4943,-2.4952,-2.4968,-2.4969,-2.4979,-2.4989,-2.499,-2.4978,-2.5,-2.5005,-2.5037,-2.5055,-2.5021,-2.5023,-2.512,-2.5121,-2.5123,-2.5145,0,0,0,0,0,0,-2.4897,-2.4905,-2.4921,-2.4937,-2.4945,-2.4992,-2.497,-2.4971,-2.4983,-2.4981,-2.4997,-2.4999,-2.5,-2.5033,-2.5039,-2.5057,-2.5025,-2.5118,-2.512,-2.5123,-2.5143,-2.5148,-2.5152,0,0,0,0,0,-2.4894,-2.4926,-2.4922,-2.4929,-2.4965,-2.4993,-2.4997,-2.4998,-2.4985,-2.5,-2.5006,-2.4998,-2.5052,-2.5037,-2.5043,-2.5062,-2.5117,-2.512,-2.5122,-2.5141,-2.5147,-2.5152,0,0,0,0,0,0,-2.4912,-2.4928,-2.4924,-2.4962,-2.4976,-2.499,-2.501,-2.5004,-2.5022,-2.5019,-2.5019,-2.5023,-2.5055,-2.5062,-2.5044,-2.51,-2.5082,-2.5087,-2.5094,-2.51,-2.5104,-2.5101,-2.5027,0,0,0,0,0,-2.4921,-2.4943,-2.4955,-2.4988,-2.4995,-2.5001,-2.5013,-2.5013,-2.5027,-2.5033,-2.5041,-2.5055,-2.5075,-2.5088,-2.5107,-2.5144,-2.5146,-2.5161,-2.5165,-2.5168,-2.5172,-2.519,-2.5196,-2.5133,-2.5133,-2.5133,0,0,-2.4938,-2.495,-2.4964,-2.4992,-2.5003,-2.5024,-2.5006,-2.5031,-2.5046,-2.5036,-2.5066,-2.5073,-2.5088,-2.5122,-2.5138,-2.5129,-2.519,-2.5172,-2.5175,-2.5176,-2.5194,-2.52,-2.5205,-2.5135,-2.5135,-2.5135,0,0,-2.4981,-2.4993,-2.5021,-2.5032,-2.5048,-2.5052,-2.5058,-2.5073,-2.5077,-2.5107,-2.5099,-2.5118,-2.5153,-2.5163,-2.5173,-2.5218,-2.5211,-2.5224,-2.5247,-2.5265,-2.527,-2.5274,-2.5289,-2.5294,-2.5228,-2.5228,-2.5228,0,-2.5001,-2.5035,-2.5035,-2.506,-2.5071,-2.5063,-2.509,-2.5101,-2.5122,-2.513,-2.512,-2.5162,-2.5172,-2.5208,-2.5219,-2.5227,-2.5234,-2.5222,-2.5269,-2.5274,-2.5278,-2.5291,-2.5297,-2.5229,-2.5229,-2.5229,-2.5229,0,-2.5057,-2.508,-2.51,-2.5121,-2.5135,-2.5161,-2.5164,-2.5178,-2.5176,-2.518,-2.521,-2.5221,-2.5241,-2.525,-2.5248,-2.5285,-2.5279,-2.5269,-2.5251,-2.5285,-2.5298,-2.5303,-2.5231,-2.5231,-2.523,-2.523,0,0,-2.5113,-2.5133,-2.514,-2.5149,-2.5166,-2.5183,-2.5208,-2.5227,-2.5239,-2.5254,-2.5273,-2.5302,-2.5293,-2.5304,-2.5303,-2.5319,-2.5352,-2.5307,-2.5307,-2.5314,-2.5391,-2.5397,-2.5403,-2.5348,-2.5349,-2.5349,-2.5389,0,-2.5156,-2.5199,-2.52,-2.5239,-2.526,-2.5252,-2.5273,-2.5285,-2.5289,-2.5306,-2.5311,-2.533,-2.5318,-2.5324,-2.534,-2.5345,-2.5367,-2.5342,-2.5364,-2.5365,-2.536,-2.541,-2.5417,-2.5454,-2.5394,-2.5395,-2.5396,0,-2.5212,-2.5229,-2.527,-2.5282,-2.5291,-2.531,-2.5327,-2.5344,-2.5357,-2.5359,-2.5371,-2.5367,-2.5391,-2.5372,-2.5404,-2.5387,-2.5396,-2.54,-2.5401,-2.5402,-2.5382,-2.5411,-2.5466,-2.5471,-2.5404,-2.5403,-2.5403,0,-2.5247,-2.5279,-2.5308,-2.5315,-2.5331,-2.5344,-2.5351,-2.5363,-2.5374,-2.5389,-2.5396,-2.5414,-2.5423,-2.5436,-2.5437,-2.5424,-2.5468,-2.5451,-2.5469,-2.5469,-2.5478,-2.5477,-2.5533,-2.5486,-2.5486,-2.5486,-2.5486,0,-2.5294,-2.5319,-2.5323,-2.534,-2.5368,-2.5368,-2.5395,-2.54,-2.5411,-2.5428,-2.5423,-2.5439,-2.5439,-2.5456,-2.5456,-2.5481,-2.5486,-2.5487,-2.5487,-2.5487,-2.5487,-2.5492,-2.5489,-2.5487,-2.5487,-2.5487,-2.5487,0,-2.5337,-2.5341,-2.5371,-2.5383,-2.5386,-2.5406,-2.5416,-2.5432,-2.5435,-2.5457,-2.5462,-2.5467,-2.5486,-2.5488,-2.5511,-2.5511,-2.554,-2.5538,-2.5536,-2.5535,-2.5553,-2.5551,-2.5614,-2.5621,-2.557,-2.5571,-2.5571,0,-2.5366,-2.5386,-2.5399,-2.5411,-2.5418,-2.5437,-2.5448,-2.5448,-2.546,-2.5475,-2.5489,-2.5507,-2.5522,-2.5552,-2.5557,-2.5574,-2.5571,-2.5592,-2.5573,-2.5572,-2.5569,-2.5567,-2.5569,-2.5595,-2.5595,-2.5596,-2.5596,0,-2.5418,-2.5418,-2.5435,-2.5452,-2.5465,-2.5479,-2.5491,-2.5501,-2.5503,-2.5516,-2.5535,-2.5546,-2.5568,-2.5586,-2.5602,-2.5608,-2.5602,-2.5602,-2.5607,-2.5607,-2.5604,-2.5604,-2.5544,-2.5601,-2.56,-2.56,-2.56,-2.5599,-2.5454,-2.5469,-2.5481,-2.5499,-2.5509,-2.552,-2.5535,-2.554,-2.5557,-2.5574,-2.5574,-2.5594,-2.5605,-2.5626,-2.5633,-2.5648,-2.5641,-2.5649,-2.565,-2.5652,-2.5653,-2.5603,-2.5651,-2.5651,-2.5651,-2.5651,-2.5651,0,-2.5503,-2.551,-2.5527,-2.5544,-2.5558,-2.5552,-2.5565,-2.5577,-2.5595,-2.5606,-2.562,-2.5641,-2.5658,-2.5664,-2.568,-2.5691,-2.5689,-2.5695,-2.5694,-2.5695,-2.5659,-2.5653,-2.5697,-2.5697,-2.5697,-2.5697,-2.5697,-2.5697,-2.553,-2.5556,-2.5558,-2.5588,-2.5594,-2.5615,-2.5622,-2.5632,-2.5641,-2.5665,-2.5679,-2.5683,-2.5691,-2.5707,-2.5722,-2.5723,-2.5729,-2.5736,-2.5736,-2.5702,-2.5698,-2.5693,-2.5687,-2.5738,-2.5738,-2.577,-2.5771,-2.5771]}]]